Location: *
(13.2257°S, 48.7193°W)
Time: 09:54:43
(UTC+00:00)

ARIANE 6 FM1 Upper Stage - Pass Details

Date: 18 April 2026
Orbit: 526 x 602 km, 62.0° (Epoch: 8 May)

Event Time Altitude Azimuth Distance (km) Brightness Sun altitude
Exits shadow 07:46:23 12° 176° (S) 1,763 5.2 -23.6°
Drops below altitude 10° 07:46:40 10° 174° (S) 1,870 5.3 -23.6°
Sets 07:49:05 0° 166° (SSE) 2,787 6.3 -23.0°
